Location: Coupvray
(48.8929°N, 2.7967°E)
Time: 10:18:42
(UTC+00:00)

Cosmos 1666 Rocket - Pass Details

Date: 14 July 2020
Orbit: 603 x 634 km, 82.5° (Epoch: 05 August)

Event Time Altitude Azimuth Distance (km) Brightness Sun altitude
Exits shadow 00:23:49 42° 212° (SSW) 877 3.9 -19.2°
Maximum altitude 00:25:10 69° 281° (W) 661 3.6 -19.1°
Drops below altitude 10° 00:29:32 10° 5° (N) 1,977 7.4 -19.0°
Sets 00:31:46 0° 8° (N) 2,882 8.7 -19.0°
